Time,TemperatureF,DewpointF,PressureIn,WindDirection,WindDirectionDegrees,WindSpeedMPH,WindSpeedGustMPH,Humidity,HourlyPrecipIn,Conditions,Clouds,dailyrainin,SoftwareType,DateUTC
2013-11-05 00:02:00,57.4,12.9,29.35,South,185,6.9,6.9,17,0.00,,---,0.00,VWS V14.01,2013-11-05 08:02:00,
2013-11-05 00:07:00,56.8,12.5,29.35,South,184,8.3,8.7,17,0.00,,---,0.00,VWS V14.01,2013-11-05 08:07:00,
2013-11-05 00:12:00,58.3,13.7,29.38,SE,138,8.7,8.7,17,0.00,,---,0.00,VWS V14.01,2013-11-05 08:12:00,
2013-11-05 00:17:00,58.3,13.7,29.38,SSE,168,6.3,8.3,17,0.00,,---,0.00,VWS V14.01,2013-11-05 08:17:00,
2013-11-05 00:22:00,58.8,14.1,29.38,South,180,4.9,5.8,17,0.00,,---,0.00,VWS V14.01,2013-11-05 08:22:00,
2013-11-05 00:27:00,57.4,12.9,29.38,South,179,6.7,7.4,17,0.00,,---,0.00,VWS V14.01,2013-11-05 08:27:00,
2013-11-05 00:32:00,57.4,12.9,29.38,SE,127,5.4,5.4,17,0.00,,---,0.00,VWS V14.01,2013-11-05 08:32:00,
2013-11-05 00:37:00,56.7,12.4,29.38,SE,135,6.7,6.9,17,0.00,,---,0.00,VWS V14.01,2013-11-05 08:37:00,
2013-11-05 00:42:00,56.7,12.4,29.38,SE,138,5.4,5.4,17,0.00,,---,0.00,VWS V14.01,2013-11-05 08:42:00,
2013-11-05 00:47:00,55.6,11.5,29.38,SE,134,0.0,5.4,17,0.00,,---,0.00,VWS V14.01,2013-11-05 08:47:00,
2013-11-05 00:52:00,54.9,10.9,29.38,ESE,111,4.0,4.0,17,0.00,,---,0.00,VWS V14.01,2013-11-05 08:52:00,
2013-11-05 00:57:00,55.4,11.3,29.38,South,188,3.1,3.6,17,0.00,,---,0.00,VWS V14.01,2013-11-05 08:57:00,
2013-11-05 01:02:00,56.5,12.2,29.38,SE,132,4.9,5.4,17,0.00,,---,0.00,VWS V14.01,2013-11-05 09:02:00,
2013-11-05 01:07:00,56.3,12.1,29.38,SSE,150,4.0,4.0,17,0.00,,---,0.00,VWS V14.01,2013-11-05 09:07:00,
2013-11-05 01:12:00,56.7,12.4,29.38,SSE,165,6.3,6.9,17,0.00,,---,0.00,VWS V14.01,2013-11-05 09:12:00,
2013-11-05 01:17:00,57.2,12.8,29.38,ESE,123,4.9,6.3,17,0.00,,---,0.00,VWS V14.01,2013-11-05 09:17:00,
2013-11-05 01:22:00,55.8,11.6,29.38,SSE,152,4.9,5.4,17,0.00,,---,0.00,VWS V14.01,2013-11-05 09:22:00,
2013-11-05 01:27:00,56.1,11.9,29.38,SE,145,6.9,6.9,17,0.00,,---,0.00,VWS V14.01,2013-11-05 09:27:00,
2013-11-05 01:32:00,57.6,13.1,29.38,SE,142,8.7,8.7,17,0.00,,---,0.00,VWS V14.01,2013-11-05 09:32:00,
2013-11-05 01:37:00,57.2,12.8,29.38,South,177,7.8,8.7,17,0.00,,---,0.00,VWS V14.01,2013-11-05 09:37:00,
2013-11-05 01:42:00,57.0,12.7,29.38,SSE,152,5.8,6.9,17,0.00,,---,0.00,VWS V14.01,2013-11-05 09:42:00,
2013-11-05 01:47:00,56.7,12.4,29.38,SSE,161,6.7,6.7,17,0.00,,---,0.00,VWS V14.01,2013-11-05 09:47:00,
2013-11-05 01:52:00,55.8,11.6,29.38,South,190,4.9,4.9,17,0.00,,---,0.00,VWS V14.01,2013-11-05 09:52:00,
2013-11-05 01:57:00,54.5,11.9,29.38,South,176,2.7,2.7,18,0.00,,---,0.00,VWS V14.01,2013-11-05 09:57:00,
2013-11-05 02:02:00,55.2,11.2,29.38,WSW,251,4.5,5.8,17,0.00,,---,0.00,VWS V14.01,2013-11-05 10:02:00,
2013-11-05 02:07:00,57.6,13.1,29.38,ESE,120,6.7,8.3,17,0.00,,---,0.00,VWS V14.01,2013-11-05 10:07:00,
2013-11-05 02:12:00,56.3,12.1,29.38,ESE,111,4.9,5.8,17,0.00,,---,0.00,VWS V14.01,2013-11-05 10:12:00,
2013-11-05 02:17:00,57.2,12.8,29.38,ESE,103,6.7,6.7,17,0.00,,---,0.00,VWS V14.01,2013-11-05 10:17:00,
2013-11-05 02:22:00,56.8,12.5,29.38,SE,130,7.8,7.8,17,0.00,,---,0.00,VWS V14.01,2013-11-05 10:22:00,
2013-11-05 02:27:00,55.6,11.5,29.38,ESE,122,7.8,7.8,17,0.00,,---,0.00,VWS V14.01,2013-11-05 10:27:00,
2013-11-05 02:32:00,54.9,10.9,29.38,SE,136,6.7,10.1,17,0.00,,---,0.00,VWS V14.01,2013-11-05 10:32:00,
2013-11-05 02:37:00,57.0,12.7,29.38,SE,124,9.2,9.2,17,0.00,,---,0.00,VWS V14.01,2013-11-05 10:37:00,
2013-11-05 02:42:00,54.7,10.7,29.38,SE,126,7.4,8.3,17,0.00,,---,0.00,VWS V14.01,2013-11-05 10:42:00,
2013-11-05 02:47:00,54.9,10.9,29.38,ESE,103,5.8,5.8,17,0.00,,---,0.00,VWS V14.01,2013-11-05 10:47:00,
2013-11-05 02:52:00,55.0,11.0,29.38,ESE,119,5.8,6.3,17,0.00,,---,0.00,VWS V14.01,2013-11-05 10:52:00,
2013-11-05 02:57:00,54.3,11.7,29.38,ESE,115,4.5,6.7,18,0.00,,---,0.00,VWS V14.01,2013-11-05 10:57:00,
2013-11-05 03:02:00,53.4,11.0,29.38,East,97,3.6,3.6,18,0.00,,---,0.00,VWS V14.01,2013-11-05 11:02:00,
2013-11-05 03:07:00,51.6,9.5,29.38,WSW,239,3.6,4.0,18,0.00,,---,0.00,VWS V14.01,2013-11-05 11:07:00,
2013-11-05 03:13:00,53.4,11.0,29.38,ESE,118,4.0,5.4,18,0.00,,---,0.00,VWS V14.01,2013-11-05 11:13:00,
2013-11-05 03:18:00,53.1,10.7,29.38,ESE,118,0.0,0.0,18,0.00,,---,0.00,VWS V14.01,2013-11-05 11:18:00,
2013-11-05 03:23:00,52.3,10.1,29.38,ESE,113,0.0,0.0,18,0.00,,---,0.00,VWS V14.01,2013-11-05 11:23:00,
2013-11-05 03:28:00,52.0,9.8,29.38,North,10,4.5,4.5,18,0.00,,---,0.00,VWS V14.01,2013-11-05 11:28:00,
2013-11-05 03:33:00,55.0,11.0,29.38,NE,39,4.0,4.9,17,0.00,,---,0.00,VWS V14.01,2013-11-05 11:33:00,
2013-11-05 03:38:00,57.9,13.4,29.38,North,356,13.9,15.9,17,0.00,,---,0.00,VWS V14.01,2013-11-05 11:38:00,
2013-11-05 03:43:00,58.3,13.7,29.41,NNE,27,6.9,12.1,17,0.00,,---,0.00,VWS V14.01,2013-11-05 11:43:00,
2013-11-05 03:48:00,58.6,14.0,29.41,North,351,9.2,12.5,17,0.00,,---,0.00,VWS V14.01,2013-11-05 11:48:00,
2013-11-05 03:53:00,58.5,13.8,29.41,NNW,332,8.3,12.1,17,0.00,,---,0.00,VWS V14.01,2013-11-05 11:53:00,
2013-11-05 03:59:00,58.3,13.7,29.41,NW,310,8.3,15.2,17,0.00,,---,0.00,VWS V14.01,2013-11-05 11:59:00,
2013-11-05 04:04:00,58.1,13.5,29.41,NNW,330,9.2,9.2,17,0.00,,---,0.00,VWS V14.01,2013-11-05 12:04:00,
2013-11-05 04:09:00,57.7,13.2,29.41,NW,318,9.6,9.6,17,0.00,,---,0.00,VWS V14.01,2013-11-05 12:09:00,
2013-11-05 04:14:00,57.0,12.7,29.41,NNW,340,6.7,6.7,17,0.00,,---,0.00,VWS V14.01,2013-11-05 12:14:00,
2013-11-05 04:19:00,58.1,13.5,29.41,NNW,338,12.5,12.5,17,0.00,,---,0.00,VWS V14.01,2013-11-05 12:19:00,
2013-11-05 04:24:00,57.6,13.1,29.41,NW,319,6.9,12.5,17,0.00,,---,0.00,VWS V14.01,2013-11-05 12:24:00,
2013-11-05 04:29:00,58.6,14.0,29.41,NNW,341,11.2,13.0,17,0.00,,---,0.00,VWS V14.01,2013-11-05 12:29:00,
2013-11-05 04:34:00,57.9,13.4,29.41,WNW,303,10.1,11.6,17,0.00,,---,0.00,VWS V14.01,2013-11-05 12:34:00,
2013-11-05 04:39:00,57.9,13.4,29.41,North,351,5.8,10.1,17,0.00,,---,0.00,VWS V14.01,2013-11-05 12:39:00,
2013-11-05 04:44:00,57.9,13.4,29.41,NNW,334,8.7,8.7,17,0.00,,---,0.00,VWS V14.01,2013-11-05 12:44:00,
2013-11-05 04:49:00,57.9,13.4,29.41,NNW,345,10.1,11.0,17,0.00,,---,0.00,VWS V14.01,2013-11-05 12:49:00,
2013-11-05 04:54:00,57.7,13.2,29.41,North,351,14.3,14.3,17,0.00,,---,0.00,VWS V14.01,2013-11-05 12:54:00,
2013-11-05 04:59:00,57.9,13.4,29.41,North,351,9.6,13.0,17,0.00,,---,0.00,VWS V14.01,2013-11-05 12:59:00,
2013-11-05 05:04:00,57.9,13.4,29.41,NNE,22,12.5,12.5,17,0.00,,---,0.00,VWS V14.01,2013-11-05 13:04:00,
2013-11-05 05:09:00,57.7,13.2,29.41,North,351,11.6,14.8,17,0.00,,---,0.00,VWS V14.01,2013-11-05 13:09:00,
2013-11-05 05:14:00,56.8,12.5,29.41,NW,318,9.2,9.6,17,0.00,,---,0.00,VWS V14.01,2013-11-05 13:14:00,
2013-11-05 05:19:00,57.4,12.9,29.41,North,351,9.2,16.3,17,0.00,,---,0.00,VWS V14.01,2013-11-05 13:19:00,
2013-11-05 05:24:00,57.2,12.8,29.41,North,356,6.3,6.3,17,0.00,,---,0.00,VWS V14.01,2013-11-05 13:24:00,
2013-11-05 05:29:00,56.7,12.4,29.41,NNE,25,6.3,6.3,17,0.00,,---,0.00,VWS V14.01,2013-11-05 13:29:00,
2013-11-05 05:34:00,56.8,12.5,29.41,NNW,332,4.9,7.4,17,0.00,,---,0.00,VWS V14.01,2013-11-05 13:34:00,
2013-11-05 05:39:00,56.3,12.1,29.41,NW,324,6.3,6.3,17,0.00,,---,0.00,VWS V14.01,2013-11-05 13:39:00,
2013-11-05 05:44:00,56.8,12.5,29.44,NNW,334,4.0,5.4,17,0.00,,---,0.00,VWS V14.01,2013-11-05 13:44:00,
2013-11-05 05:49:00,56.7,12.4,29.44,North,9,7.4,9.2,17,0.00,,---,0.00,VWS V14.01,2013-11-05 13:49:00,
2013-11-05 05:54:00,55.9,11.8,29.44,NNW,327,0.0,0.0,17,0.00,,---,0.00,VWS V14.01,2013-11-05 13:54:00,
2013-11-05 05:59:00,55.8,11.6,29.44,SW,222,5.8,7.4,17,0.00,,---,0.00,VWS V14.01,2013-11-05 13:59:00,
2013-11-05 06:04:00,55.9,11.8,29.44,North,351,0.0,4.9,17,0.00,,---,0.00,VWS V14.01,2013-11-05 14:04:00,
2013-11-05 06:09:00,55.4,11.3,29.44,North,356,0.0,3.1,17,0.00,,---,0.00,VWS V14.01,2013-11-05 14:09:00,
2013-11-05 06:14:00,54.9,10.9,29.44,NNE,23,0.0,0.0,17,0.00,,---,0.00,VWS V14.01,2013-11-05 14:14:00,
2013-11-05 06:19:00,53.8,11.3,29.44,NNE,23,0.0,0.0,18,0.00,,---,0.00,VWS V14.01,2013-11-05 14:19:00,
2013-11-05 06:24:00,53.2,10.9,29.44,NNE,23,0.0,0.0,18,0.00,,---,0.00,VWS V14.01,2013-11-05 14:24:00,
2013-11-05 06:29:00,53.8,11.3,29.44,ESE,117,3.1,4.0,18,0.00,,---,0.00,VWS V14.01,2013-11-05 14:29:00,
2013-11-05 06:34:00,53.2,10.9,29.44,East,79,4.5,4.5,18,0.00,,---,0.00,VWS V14.01,2013-11-05 14:34:00,
2013-11-05 06:39:00,52.7,10.4,29.44,ENE,59,4.9,4.9,18,0.00,,---,0.00,VWS V14.01,2013-11-05 14:39:00,
2013-11-05 06:44:00,54.1,11.6,29.44,NNE,33,6.7,6.7,18,0.00,,---,0.00,VWS V14.01,2013-11-05 14:44:00,
2013-11-05 06:49:00,54.1,11.6,29.44,NNE,31,3.1,3.1,18,0.00,,---,0.00,VWS V14.01,2013-11-05 14:49:00,
2013-11-05 06:54:00,53.4,11.0,29.44,ENE,61,3.1,4.5,18,0.00,,---,0.00,VWS V14.01,2013-11-05 14:54:00,
2013-11-05 06:59:00,53.8,11.3,29.47,ESE,105,4.0,4.0,18,0.00,,---,0.00,VWS V14.01,2013-11-05 14:59:00,
2013-11-05 07:04:00,53.1,10.7,29.47,ESE,123,4.9,4.9,18,0.00,,---,0.00,VWS V14.01,2013-11-05 15:04:00,
2013-11-05 07:09:00,53.1,10.7,29.47,SE,125,4.5,4.5,18,0.00,,---,0.00,VWS V14.01,2013-11-05 15:09:00,
2013-11-05 07:15:00,54.0,11.4,29.47,SSE,159,5.8,6.3,18,0.00,,---,0.00,VWS V14.01,2013-11-05 15:15:00,
2013-11-05 07:20:00,54.7,10.7,29.47,SSE,159,4.0,4.9,17,0.00,,---,0.00,VWS V14.01,2013-11-05 15:20:00,
2013-11-05 07:25:00,54.5,10.6,29.47,SSE,160,0.0,0.0,17,0.00,,---,0.00,VWS V14.01,2013-11-05 15:25:00,
2013-11-05 07:30:00,55.0,11.0,29.47,SSE,150,4.9,5.4,17,0.00,,---,0.00,VWS V14.01,2013-11-05 15:30:00,
2013-11-05 07:35:00,55.6,11.5,29.47,SSE,160,6.3,6.3,17,0.00,,---,0.00,VWS V14.01,2013-11-05 15:35:00,
2013-11-05 07:40:00,56.5,12.2,29.47,SSE,160,3.6,3.6,17,0.00,,---,0.00,VWS V14.01,2013-11-05 15:40:00,
2013-11-05 07:45:00,57.4,12.9,29.47,SE,143,4.0,4.0,17,0.00,,---,0.00,VWS V14.01,2013-11-05 15:45:00,
2013-11-05 07:50:00,57.7,13.2,29.47,ESE,114,4.5,4.5,17,0.00,,---,0.00,VWS V14.01,2013-11-05 15:50:00,
2013-11-05 07:55:00,58.1,13.5,29.47,NNE,33,8.3,8.3,17,0.00,,---,0.00,VWS V14.01,2013-11-05 15:55:00,
2013-11-05 08:00:00,58.5,13.8,29.47,NNE,32,3.6,6.3,17,0.00,,---,0.00,VWS V14.01,2013-11-05 16:00:00,
2013-11-05 08:06:00,59.2,14.4,29.47,NNW,340,7.4,7.4,17,0.00,,---,0.00,VWS V14.01,2013-11-05 16:06:00,
2013-11-05 08:11:00,59.5,14.7,29.47,North,3,4.5,4.9,17,0.00,,---,0.00,VWS V14.01,2013-11-05 16:11:00,
2013-11-05 08:16:00,60.1,13.8,29.47,NNE,24,9.6,9.6,16,0.00,,---,0.00,VWS V14.01,2013-11-05 16:16:00,
2013-11-05 08:21:00,60.1,13.8,29.47,NNW,345,11.2,11.2,16,0.00,,---,0.00,VWS V14.01,2013-11-05 16:21:00,
2013-11-05 08:26:00,60.4,14.1,29.47,NNW,347,8.7,8.7,16,0.00,,---,0.00,VWS V14.01,2013-11-05 16:26:00,
2013-11-05 08:31:00,60.1,13.8,29.47,North,351,7.4,11.6,16,0.00,,---,0.00,VWS V14.01,2013-11-05 16:31:00,
2013-11-05 08:36:00,60.1,13.8,29.47,NNW,333,10.5,12.1,16,0.00,,---,0.00,VWS V14.01,2013-11-05 16:36:00,
2013-11-05 08:41:00,60.3,13.9,29.47,NNW,327,9.2,9.2,16,0.00,,---,0.00,VWS V14.01,2013-11-05 16:41:00,
2013-11-05 08:46:00,60.3,13.9,29.47,NNW,338,8.3,8.3,16,0.00,,---,0.00,VWS V14.01,2013-11-05 16:46:00,
2013-11-05 08:51:00,60.1,13.8,29.47,NNW,340,11.2,11.2,16,0.00,,---,0.00,VWS V14.01,2013-11-05 16:51:00,
2013-11-05 08:56:00,61.0,14.5,29.50,NNW,343,8.7,11.0,16,0.00,,---,0.00,VWS V14.01,2013-11-05 16:56:00,
2013-11-05 09:01:00,60.8,14.4,29.50,NNW,341,9.2,9.6,16,0.00,,---,0.00,VWS V14.01,2013-11-05 17:01:00,
2013-11-05 09:06:00,60.8,14.4,29.50,NNW,331,6.9,8.7,16,0.00,,---,0.00,VWS V14.01,2013-11-05 17:06:00,
2013-11-05 09:11:00,61.2,14.6,29.50,NNW,334,9.6,9.6,16,0.00,,---,0.00,VWS V14.01,2013-11-05 17:11:00,
2013-11-05 09:16:00,62.1,15.4,29.50,North,351,5.8,5.8,16,0.00,,---,0.00,VWS V14.01,2013-11-05 17:16:00,
2013-11-05 09:21:00,61.5,14.9,29.50,NNW,331,10.5,10.5,16,0.00,,---,0.00,VWS V14.01,2013-11-05 17:21:00,
2013-11-05 09:26:00,61.9,15.2,29.50,NW,309,6.9,6.9,16,0.00,,---,0.00,VWS V14.01,2013-11-05 17:26:00,
2013-11-05 09:31:00,62.1,15.4,29.50,NNE,12,6.7,6.9,16,0.00,,---,0.00,VWS V14.01,2013-11-05 17:31:00,
2013-11-05 09:36:00,62.4,15.7,29.50,North,356,4.0,5.4,16,0.00,,---,0.00,VWS V14.01,2013-11-05 17:36:00,
2013-11-05 09:41:00,62.8,15.9,29.50,NNW,347,10.1,10.1,16,0.00,,---,0.00,VWS V14.01,2013-11-05 17:41:00,
2013-11-05 09:46:00,62.8,15.9,29.50,NNE,15,7.8,7.8,16,0.00,,---,0.00,VWS V14.01,2013-11-05 17:46:00,
2013-11-05 09:51:00,62.6,15.8,29.50,WNW,303,6.9,9.2,16,0.00,,---,0.00,VWS V14.01,2013-11-05 17:51:00,
2013-11-05 09:56:00,62.6,15.8,29.50,NW,321,6.9,6.9,16,0.00,,---,0.00,VWS V14.01,2013-11-05 17:56:00,
2013-11-05 10:01:00,63.0,16.1,29.50,NNW,331,6.7,6.7,16,0.00,,---,0.00,VWS V14.01,2013-11-05 18:01:00,
2013-11-05 10:06:00,63.5,16.5,29.50,NNW,340,8.7,8.7,16,0.00,,---,0.00,VWS V14.01,2013-11-05 18:06:00,
2013-11-05 10:11:00,63.7,15.2,29.47,NNW,328,4.0,8.3,15,0.00,,---,0.00,VWS V14.01,2013-11-05 18:11:00,
2013-11-05 10:16:00,63.5,15.1,29.47,NW,317,6.9,6.9,15,0.00,,---,0.00,VWS V14.01,2013-11-05 18:16:00,
2013-11-05 10:21:00,64.0,15.5,29.47,North,356,6.9,10.5,15,0.00,,---,0.00,VWS V14.01,2013-11-05 18:21:00,
2013-11-05 10:26:00,63.5,15.1,29.50,NNW,332,9.2,9.2,15,0.00,,---,0.00,VWS V14.01,2013-11-05 18:26:00,
2013-11-05 10:31:00,64.4,15.8,29.50,NNW,346,12.1,12.1,15,0.00,,---,0.00,VWS V14.01,2013-11-05 18:31:00,
2013-11-05 10:36:00,65.5,16.6,29.50,North,351,6.9,11.0,15,0.00,,---,0.00,VWS V14.01,2013-11-05 18:36:00,
2013-11-05 10:41:00,64.9,16.2,29.50,NW,324,9.2,13.9,15,0.00,,---,0.00,VWS V14.01,2013-11-05 18:41:00,
2013-11-05 10:46:00,64.9,16.2,29.50,NNW,347,6.3,6.3,15,0.00,,---,0.00,VWS V14.01,2013-11-05 18:46:00,
2013-11-05 10:51:00,64.9,16.2,29.50,North,351,5.8,9.2,15,0.00,,---,0.00,VWS V14.01,2013-11-05 18:51:00,
2013-11-05 10:56:00,65.5,16.6,29.47,NNE,19,13.9,13.9,15,0.00,,---,0.00,VWS V14.01,2013-11-05 18:56:00,
2013-11-05 11:01:00,65.3,16.5,29.47,NNE,15,11.2,13.4,15,0.00,,---,0.00,VWS V14.01,2013-11-05 19:01:00,
2013-11-05 11:06:00,64.8,16.1,29.47,NNE,13,10.1,14.3,15,0.00,,---,0.00,VWS V14.01,2013-11-05 19:06:00,
2013-11-05 11:11:00,65.1,16.4,29.50,NNE,21,10.5,12.1,15,0.00,,---,0.00,VWS V14.01,2013-11-05 19:11:00,
2013-11-05 11:16:00,65.7,16.8,29.50,NNE,14,14.3,14.8,15,0.00,,---,0.00,VWS V14.01,2013-11-05 19:16:00,
2013-11-05 11:21:00,65.5,16.6,29.50,NNE,14,12.5,15.2,15,0.00,,---,0.00,VWS V14.01,2013-11-05 19:21:00,
2013-11-05 11:26:00,65.7,16.8,29.50,NNE,13,9.2,15.9,15,0.00,,---,0.00,VWS V14.01,2013-11-05 19:26:00,
2013-11-05 11:31:00,65.5,16.6,29.47,NNE,17,15.4,15.9,15,0.00,,---,0.00,VWS V14.01,2013-11-05 19:31:00,
2013-11-05 11:36:00,66.0,17.1,29.47,North,3,11.2,11.2,15,0.00,,---,0.00,VWS V14.01,2013-11-05 19:36:00,
2013-11-05 11:41:00,65.8,16.9,29.47,NNE,13,11.2,11.2,15,0.00,,---,0.00,VWS V14.01,2013-11-05 19:41:00,
2013-11-05 11:46:00,65.8,16.9,29.47,North,356,11.2,11.2,15,0.00,,---,0.00,VWS V14.01,2013-11-05 19:46:00,
2013-11-05 11:51:00,66.2,17.2,29.47,NNE,15,8.7,8.7,15,0.00,,---,0.00,VWS V14.01,2013-11-05 19:51:00,
2013-11-05 11:56:00,66.6,17.5,29.47,NNE,17,11.0,12.5,15,0.00,,---,0.00,VWS V14.01,2013-11-05 19:56:00,
2013-11-05 12:01:00,66.4,17.4,29.47,NE,36,15.2,15.2,15,0.00,,---,0.00,VWS V14.01,2013-11-05 20:01:00,
2013-11-05 12:06:00,66.9,17.8,29.47,NNE,26,8.7,8.7,15,0.00,,---,0.00,VWS V14.01,2013-11-05 20:06:00,
2013-11-05 12:11:00,66.9,17.8,29.47,NNW,339,10.5,12.5,15,0.00,,---,0.00,VWS V14.01,2013-11-05 20:11:00,
2013-11-05 12:16:00,66.9,17.8,29.47,NW,323,8.7,8.7,15,0.00,,---,0.00,VWS V14.01,2013-11-05 20:16:00,
2013-11-05 12:21:00,67.3,18.1,29.47,NE,35,11.2,11.6,15,0.00,,---,0.00,VWS V14.01,2013-11-05 20:21:00,
2013-11-05 12:26:00,67.5,18.2,29.47,North,11,8.7,8.7,15,0.00,,---,0.00,VWS V14.01,2013-11-05 20:26:00,
2013-11-05 12:32:00,67.5,18.2,29.44,North,10,7.8,7.8,15,0.00,,---,0.00,VWS V14.01,2013-11-05 20:32:00,
2013-11-05 12:37:00,68.0,18.7,29.44,North,2,6.9,7.4,15,0.00,,---,0.00,VWS V14.01,2013-11-05 20:37:00,
2013-11-05 12:42:00,67.8,18.5,29.44,NE,40,8.7,8.7,15,0.00,,---,0.00,VWS V14.01,2013-11-05 20:42:00,
2013-11-05 12:47:00,66.9,17.8,29.44,NNW,337,5.8,11.2,15,0.00,,---,0.00,VWS V14.01,2013-11-05 20:47:00,
2013-11-05 12:52:00,67.6,18.4,29.44,NW,325,6.7,9.2,15,0.00,,---,0.00,VWS V14.01,2013-11-05 20:52:00,
2013-11-05 12:57:00,68.2,18.8,29.44,North,356,4.5,8.3,15,0.00,,---,0.00,VWS V14.01,2013-11-05 20:57:00,
2013-11-05 13:02:00,68.0,18.7,29.44,North,10,5.8,6.3,15,0.00,,---,0.00,VWS V14.01,2013-11-05 21:02:00,
2013-11-05 13:07:00,67.8,18.5,29.44,NW,324,9.2,9.2,15,0.00,,---,0.00,VWS V14.01,2013-11-05 21:07:00,
2013-11-05 13:12:00,68.0,18.7,29.44,NNW,340,6.7,6.7,15,0.00,,---,0.00,VWS V14.01,2013-11-05 21:12:00,
2013-11-05 13:17:00,68.2,18.8,29.44,NNE,25,7.4,8.7,15,0.00,,---,0.00,VWS V14.01,2013-11-05 21:17:00,
2013-11-05 13:22:00,67.8,18.5,29.44,NNW,338,4.0,5.8,15,0.00,,---,0.00,VWS V14.01,2013-11-05 21:22:00,
2013-11-05 13:27:00,67.5,18.2,29.44,NE,48,9.2,10.5,15,0.00,,---,0.00,VWS V14.01,2013-11-05 21:27:00,
2013-11-05 13:32:00,68.4,19.0,29.44,NNE,13,6.7,6.7,15,0.00,,---,0.00,VWS V14.01,2013-11-05 21:32:00,
2013-11-05 13:37:00,68.0,18.7,29.44,NE,53,7.8,11.6,15,0.00,,---,0.00,VWS V14.01,2013-11-05 21:37:00,
2013-11-05 13:42:00,68.7,19.2,29.44,ENE,78,6.7,6.7,15,0.00,,---,0.00,VWS V14.01,2013-11-05 21:42:00,
2013-11-05 13:47:00,68.2,18.8,29.44,NE,53,11.2,11.6,15,0.00,,---,0.00,VWS V14.01,2013-11-05 21:47:00,
2013-11-05 13:52:00,68.2,18.8,29.44,NNE,24,7.4,9.2,15,0.00,,---,0.00,VWS V14.01,2013-11-05 21:52:00,
2013-11-05 13:57:00,68.0,18.7,29.44,NNE,30,8.3,13.0,15,0.00,,---,0.00,VWS V14.01,2013-11-05 21:57:00,
2013-11-05 14:02:00,67.8,18.5,29.44,North,10,4.5,5.8,15,0.00,,---,0.00,VWS V14.01,2013-11-05 22:02:00,
2013-11-05 14:07:00,68.2,18.8,29.44,NE,39,8.3,8.3,15,0.00,,---,0.00,VWS V14.01,2013-11-05 22:07:00,
2013-11-05 14:12:00,68.4,19.0,29.44,NE,35,9.2,9.2,15,0.00,,---,0.00,VWS V14.01,2013-11-05 22:12:00,
2013-11-05 14:17:00,68.4,19.0,29.44,East,79,3.1,6.3,15,0.00,,---,0.00,VWS V14.01,2013-11-05 22:17:00,
2013-11-05 14:22:00,69.1,17.9,29.44,NNE,28,8.3,9.2,14,0.00,,---,0.00,VWS V14.01,2013-11-05 22:22:00,
2013-11-05 14:27:00,68.9,19.4,29.44,NE,45,5.4,11.0,15,0.00,,---,0.00,VWS V14.01,2013-11-05 22:27:00,
2013-11-05 14:32:00,68.4,19.0,29.44,ENE,61,6.9,8.7,15,0.00,,---,0.00,VWS V14.01,2013-11-05 22:32:00,
2013-11-05 14:37:00,68.0,18.7,29.44,NE,43,8.3,11.2,15,0.00,,---,0.00,VWS V14.01,2013-11-05 22:37:00,
2013-11-05 14:42:00,68.2,18.8,29.41,NE,46,5.4,8.3,15,0.00,,---,0.00,VWS V14.01,2013-11-05 22:42:00,
2013-11-05 14:47:00,68.2,18.8,29.41,NE,39,7.4,7.8,15,0.00,,---,0.00,VWS V14.01,2013-11-05 22:47:00,
2013-11-05 14:52:00,68.5,19.1,29.41,NNE,28,8.7,8.7,15,0.00,,---,0.00,VWS V14.01,2013-11-05 22:52:00,
2013-11-05 14:57:00,68.0,18.7,29.44,North,11,6.3,11.0,15,0.00,,---,0.00,VWS V14.01,2013-11-05 22:57:00,
2013-11-05 15:02:00,67.3,18.1,29.44,NE,54,8.3,9.2,15,0.00,,---,0.00,VWS V14.01,2013-11-05 23:02:00,
2013-11-05 15:07:00,67.3,18.1,29.44,NE,38,11.2,11.2,15,0.00,,---,0.00,VWS V14.01,2013-11-05 23:07:00,
2013-11-05 15:12:00,67.6,18.4,29.44,NE,46,10.1,10.1,15,0.00,,---,0.00,VWS V14.01,2013-11-05 23:12:00,
2013-11-05 15:17:00,68.2,18.8,29.44,NE,35,9.6,9.6,15,0.00,,---,0.00,VWS V14.01,2013-11-05 23:17:00,
2013-11-05 15:22:00,68.2,18.8,29.44,ENE,64,8.7,8.7,15,0.00,,---,0.00,VWS V14.01,2013-11-05 23:22:00,
2013-11-05 15:27:00,68.4,19.0,29.44,NNE,24,9.6,11.2,15,0.00,,---,0.00,VWS V14.01,2013-11-05 23:27:00,
2013-11-05 15:32:00,68.0,18.7,29.44,NE,35,8.7,9.2,15,0.00,,---,0.00,VWS V14.01,2013-11-05 23:32:00,
2013-11-05 15:37:00,67.8,18.5,29.44,NE,44,7.4,10.1,15,0.00,,---,0.00,VWS V14.01,2013-11-05 23:37:00,
2013-11-05 15:43:00,67.6,18.4,29.41,NE,39,8.7,12.1,15,0.00,,---,0.00,VWS V14.01,2013-11-05 23:43:00,
2013-11-05 15:48:00,67.5,18.2,29.41,NE,52,12.1,12.1,15,0.00,,---,0.00,VWS V14.01,2013-11-05 23:48:00,
2013-11-05 15:53:00,67.5,18.2,29.41,NNE,30,10.1,12.5,15,0.00,,---,0.00,VWS V14.01,2013-11-05 23:53:00,
2013-11-05 15:58:00,67.3,18.1,29.41,NE,46,7.8,9.2,15,0.00,,---,0.00,VWS V14.01,2013-11-05 23:58:00,
2013-11-05 16:03:00,67.3,18.1,29.41,ENE,61,10.1,10.1,15,0.00,,---,0.00,VWS V14.01,2013-11-06 00:03:00,
2013-11-05 16:08:00,67.1,17.9,29.41,NE,53,8.7,11.0,15,0.00,,---,0.00,VWS V14.01,2013-11-06 00:08:00,
2013-11-05 16:13:00,66.9,17.8,29.44,ENE,66,10.1,10.5,15,0.00,,---,0.00,VWS V14.01,2013-11-06 00:13:00,
2013-11-05 16:18:00,66.7,17.6,29.44,NE,50,7.8,8.7,15,0.00,,---,0.00,VWS V14.01,2013-11-06 00:18:00,
2013-11-05 16:23:00,66.6,17.5,29.44,ENE,68,10.5,10.5,15,0.00,,---,0.00,VWS V14.01,2013-11-06 00:23:00,
2013-11-05 16:28:00,66.4,17.4,29.44,NE,47,6.3,11.0,15,0.00,,---,0.00,VWS V14.01,2013-11-06 00:28:00,
2013-11-05 16:33:00,66.2,17.2,29.44,ENE,64,10.1,10.1,15,0.00,,---,0.00,VWS V14.01,2013-11-06 00:33:00,
2013-11-05 16:38:00,65.8,16.9,29.44,ENE,57,8.3,8.7,15,0.00,,---,0.00,VWS V14.01,2013-11-06 00:38:00,
2013-11-05 16:43:00,65.5,16.6,29.44,ENE,65,6.9,8.3,15,0.00,,---,0.00,VWS V14.01,2013-11-06 00:43:00,
2013-11-05 16:48:00,65.1,16.4,29.44,ENE,73,7.4,7.8,15,0.00,,---,0.00,VWS V14.01,2013-11-06 00:48:00,
2013-11-05 16:53:00,64.8,16.1,29.44,ENE,62,6.7,8.3,15,0.00,,---,0.00,VWS V14.01,2013-11-06 00:53:00,
2013-11-05 16:58:00,64.8,16.1,29.44,NE,52,6.7,6.7,15,0.00,,---,0.00,VWS V14.01,2013-11-06 00:58:00,
2013-11-05 17:03:00,64.2,15.6,29.44,ENE,64,6.7,6.9,15,0.00,,---,0.00,VWS V14.01,2013-11-06 01:03:00,
2013-11-05 17:08:00,63.7,15.2,29.44,ENE,73,6.3,7.8,15,0.00,,---,0.00,VWS V14.01,2013-11-06 01:08:00,
2013-11-05 17:13:00,63.0,16.1,29.44,ENE,68,6.9,6.9,16,0.00,,---,0.00,VWS V14.01,2013-11-06 01:13:00,
2013-11-05 17:18:00,62.2,15.5,29.44,East,88,5.8,5.8,16,0.00,,---,0.00,VWS V14.01,2013-11-06 01:18:00,
2013-11-05 17:23:00,61.9,15.2,29.44,NE,53,4.5,4.5,16,0.00,,---,0.00,VWS V14.01,2013-11-06 01:23:00,
2013-11-05 17:28:00,61.7,15.1,29.44,NE,46,6.7,6.7,16,0.00,,---,0.00,VWS V14.01,2013-11-06 01:28:00,
2013-11-05 17:33:00,62.1,15.4,29.44,NE,47,4.5,5.4,16,0.00,,---,0.00,VWS V14.01,2013-11-06 01:33:00,
2013-11-05 17:38:00,61.2,14.6,29.44,NE,50,4.0,4.9,16,0.00,,---,0.00,VWS V14.01,2013-11-06 01:38:00,
2013-11-05 17:43:00,61.7,15.1,29.44,NE,55,5.8,6.9,16,0.00,,---,0.00,VWS V14.01,2013-11-06 01:43:00,
2013-11-05 17:48:00,61.5,14.9,29.44,NE,53,6.9,6.9,16,0.00,,---,0.00,VWS V14.01,2013-11-06 01:48:00,
2013-11-05 17:53:00,61.7,15.1,29.44,ENE,69,7.4,8.7,16,0.00,,---,0.00,VWS V14.01,2013-11-06 01:53:00,
2013-11-05 17:58:00,61.7,15.1,29.44,ENE,67,8.7,9.2,16,0.00,,---,0.00,VWS V14.01,2013-11-06 01:58:00,
2013-11-05 18:03:00,61.5,14.9,29.44,ENE,61,8.3,8.3,16,0.00,,---,0.00,VWS V14.01,2013-11-06 02:03:00,
2013-11-05 18:08:00,61.2,14.6,29.44,ENE,65,9.2,9.2,16,0.00,,---,0.00,VWS V14.01,2013-11-06 02:08:00,
2013-11-05 18:13:00,60.6,14.2,29.44,ENE,71,7.4,8.3,16,0.00,,---,0.00,VWS V14.01,2013-11-06 02:13:00,
2013-11-05 18:18:00,60.6,14.2,29.44,NE,56,7.4,8.7,16,0.00,,---,0.00,VWS V14.01,2013-11-06 02:18:00,
2013-11-05 18:23:00,60.4,14.1,29.44,ENE,60,6.9,6.9,16,0.00,,---,0.00,VWS V14.01,2013-11-06 02:23:00,
2013-11-05 18:28:00,60.3,13.9,29.47,ENE,63,7.4,7.8,16,0.00,,---,0.00,VWS V14.01,2013-11-06 02:28:00,
2013-11-05 18:33:00,59.9,13.6,29.47,ENE,67,6.3,6.3,16,0.00,,---,0.00,VWS V14.01,2013-11-06 02:33:00,
2013-11-05 18:38:00,60.4,14.1,29.47,ENE,67,7.8,7.8,16,0.00,,---,0.00,VWS V14.01,2013-11-06 02:38:00,
2013-11-05 18:43:00,60.4,14.1,29.47,NE,56,6.9,7.8,16,0.00,,---,0.00,VWS V14.01,2013-11-06 02:43:00,
2013-11-05 18:48:00,60.1,13.8,29.47,NE,51,7.4,7.4,16,0.00,,---,0.00,VWS V14.01,2013-11-06 02:48:00,
2013-11-05 18:53:00,59.9,13.6,29.47,NE,46,8.7,8.7,16,0.00,,---,0.00,VWS V14.01,2013-11-06 02:53:00,
2013-11-05 18:58:00,59.9,13.6,29.47,NE,49,7.4,7.8,16,0.00,,---,0.00,VWS V14.01,2013-11-06 02:58:00,
2013-11-05 19:03:00,59.7,14.9,29.47,ENE,73,4.9,6.9,17,0.00,,---,0.00,VWS V14.01,2013-11-06 03:03:00,
2013-11-05 19:08:00,58.8,14.1,29.47,East,82,2.7,3.6,17,0.00,,---,0.00,VWS V14.01,2013-11-06 03:08:00,
2013-11-05 19:13:00,58.8,14.1,29.47,ENE,68,4.0,4.0,17,0.00,,---,0.00,VWS V14.01,2013-11-06 03:13:00,
2013-11-05 19:18:00,58.3,13.7,29.47,ENE,72,0.0,0.0,17,0.00,,---,0.00,VWS V14.01,2013-11-06 03:18:00,
2013-11-05 19:23:00,58.1,13.5,29.47,ESE,120,3.1,4.0,17,0.00,,---,0.00,VWS V14.01,2013-11-06 03:23:00,
2013-11-05 19:28:00,58.6,14.0,29.47,ESE,115,6.7,7.4,17,0.00,,---,0.00,VWS V14.01,2013-11-06 03:28:00,
2013-11-05 19:33:00,60.8,14.4,29.47,SE,141,5.4,5.8,16,0.00,,---,0.00,VWS V14.01,2013-11-06 03:33:00,
2013-11-05 19:38:00,60.1,13.8,29.47,SE,129,6.3,6.3,16,0.00,,---,0.00,VWS V14.01,2013-11-06 03:38:00,
2013-11-05 19:43:00,61.0,14.5,29.47,SSE,166,6.3,6.3,16,0.00,,---,0.00,VWS V14.01,2013-11-06 03:43:00,
2013-11-05 19:48:00,60.8,14.4,29.47,SSW,199,2.7,4.5,16,0.00,,---,0.00,VWS V14.01,2013-11-06 03:48:00,
2013-11-05 19:53:00,60.1,15.1,29.47,NE,54,5.4,5.4,17,0.00,,---,0.00,VWS V14.01,2013-11-06 03:53:00,
2013-11-05 19:58:00,59.0,14.3,29.47,ESE,114,0.0,0.0,17,0.00,,---,0.00,VWS V14.01,2013-11-06 03:58:00,
2013-11-05 20:03:00,58.1,13.5,29.47,ESE,114,0.0,0.0,17,0.00,,---,0.00,VWS V14.01,2013-11-06 04:03:00,
2013-11-05 20:08:00,57.2,12.8,29.47,ESE,114,0.0,0.0,17,0.00,,---,0.00,VWS V14.01,2013-11-06 04:08:00,
2013-11-05 20:13:00,56.8,12.5,29.47,ESE,114,0.0,0.0,17,0.00,,---,0.00,VWS V14.01,2013-11-06 04:13:00,
2013-11-05 20:18:00,56.8,12.5,29.47,ESE,114,0.0,0.0,17,0.00,,---,0.00,VWS V14.01,2013-11-06 04:18:00,
2013-11-05 20:23:00,56.3,12.1,29.47,ESE,114,0.0,0.0,17,0.00,,---,0.00,VWS V14.01,2013-11-06 04:23:00,
2013-11-05 20:28:00,55.8,11.6,29.50,ESE,114,0.0,0.0,17,0.00,,---,0.00,VWS V14.01,2013-11-06 04:28:00,
2013-11-05 20:33:00,55.4,11.3,29.50,ESE,114,0.0,0.0,17,0.00,,---,0.00,VWS V14.01,2013-11-06 04:33:00,
2013-11-05 20:38:00,54.5,10.6,29.50,ESE,114,3.6,3.6,17,0.00,,---,0.00,VWS V14.01,2013-11-06 04:38:00,
2013-11-05 20:43:00,54.0,11.4,29.50,ESE,114,2.7,2.7,18,0.00,,---,0.00,VWS V14.01,2013-11-06 04:43:00,
2013-11-05 20:48:00,53.4,11.0,29.50,ESE,114,0.0,0.0,18,0.00,,---,0.00,VWS V14.01,2013-11-06 04:48:00,
2013-11-05 20:53:00,53.6,11.1,29.50,ESE,112,4.0,4.0,18,0.00,,---,0.00,VWS V14.01,2013-11-06 04:53:00,
2013-11-05 20:58:00,53.8,11.3,29.50,ESE,112,3.6,4.0,18,0.00,,---,0.00,VWS V14.01,2013-11-06 04:58:00,
2013-11-05 21:02:00,53.4,11.0,29.50,ESE,112,0.0,0.0,18,0.00,,---,0.00,VWS V14.01,2013-11-06 05:02:00,
2013-11-05 21:03:00,53.4,11.0,29.50,ESE,112,0.0,0.0,18,0.00,,---,0.00,VWS V14.01,2013-11-06 05:03:00,
2013-11-05 21:06:00,53.1,10.7,29.50,ESE,112,0.0,0.0,18,0.00,,---,0.00,VWS V14.01,2013-11-06 05:06:00,
2013-11-05 21:07:00,52.9,10.6,29.50,ESE,112,0.0,0.0,18,0.00,,---,0.00,VWS V14.01,2013-11-06 05:07:00,
2013-11-05 21:09:00,52.9,10.6,29.50,ESE,112,0.0,0.0,18,0.00,,---,0.00,VWS V14.01,2013-11-06 05:09:00,
2013-11-05 21:14:00,52.7,10.4,29.50,ESE,106,4.5,4.9,18,0.00,,---,0.00,VWS V14.01,2013-11-06 05:14:00,
2013-11-05 21:19:00,52.5,10.2,29.50,ESE,108,4.0,4.0,18,0.00,,---,0.00,VWS V14.01,2013-11-06 05:19:00,
2013-11-05 21:24:00,51.8,9.7,29.50,ESE,108,2.7,4.0,18,0.00,,---,0.00,VWS V14.01,2013-11-06 05:24:00,
2013-11-05 21:28:00,51.1,9.1,29.50,ESE,108,3.1,4.0,18,0.00,,---,0.00,VWS V14.01,2013-11-06 05:28:00,
2013-11-05 21:33:00,50.2,5.7,29.50,ESE,108,0.0,0.0,16,0.00,,---,0.00,VWS V14.01,2013-11-06 05:33:00,
2013-11-05 21:38:00,48.9,4.7,29.50,ESE,108,0.0,0.0,16,0.00,,---,0.00,VWS V14.01,2013-11-06 05:38:00,
2013-11-05 21:43:00,48.6,4.4,29.50,ESE,108,0.0,0.0,16,0.00,,---,0.00,VWS V14.01,2013-11-06 05:43:00,
2013-11-05 21:48:00,49.1,4.9,29.50,ESE,108,0.0,0.0,16,0.00,,---,0.00,VWS V14.01,2013-11-06 05:48:00,
2013-11-05 21:54:00,49.6,5.3,29.50,ESE,108,3.1,4.0,16,0.00,,---,0.00,VWS V14.01,2013-11-06 05:54:00,
2013-11-05 21:59:00,49.8,5.4,29.53,ESE,108,0.0,0.0,16,0.00,,---,0.00,VWS V14.01,2013-11-06 05:59:00,
2013-11-05 22:04:00,49.3,5.0,29.53,ESE,108,3.1,3.6,16,0.00,,---,0.00,VWS V14.01,2013-11-06 06:04:00,
2013-11-05 22:09:00,49.1,4.9,29.53,ESE,108,3.1,3.6,16,0.00,,---,0.00,VWS V14.01,2013-11-06 06:09:00,
2013-11-05 22:14:00,49.1,4.9,29.53,ESE,108,2.7,3.1,16,0.00,,---,0.00,VWS V14.01,2013-11-06 06:14:00,
2013-11-05 22:19:00,49.3,5.0,29.53,ESE,108,3.1,3.6,16,0.00,,---,0.00,VWS V14.01,2013-11-06 06:19:00,
2013-11-05 22:24:00,49.5,5.2,29.53,ESE,108,3.6,3.6,16,0.00,,---,0.00,VWS V14.01,2013-11-06 06:24:00,
2013-11-05 22:29:00,49.5,5.2,29.53,ESE,108,2.7,3.6,16,0.00,,---,0.00,VWS V14.01,2013-11-06 06:29:00,
2013-11-05 22:34:00,48.7,4.6,29.53,ESE,108,0.0,0.0,16,0.00,,---,0.00,VWS V14.01,2013-11-06 06:34:00,
2013-11-05 22:39:00,47.8,3.8,29.53,ESE,108,0.0,0.0,16,0.00,,---,0.00,VWS V14.01,2013-11-06 06:39:00,
2013-11-05 22:44:00,48.0,4.0,29.53,ESE,108,0.0,0.0,16,0.00,,---,0.00,VWS V14.01,2013-11-06 06:44:00,
2013-11-05 22:49:00,48.4,4.3,29.53,ESE,108,0.0,0.0,16,0.00,,---,0.00,VWS V14.01,2013-11-06 06:49:00,
2013-11-05 22:54:00,49.1,4.9,29.53,ESE,108,0.0,0.0,16,0.00,,---,0.00,VWS V14.01,2013-11-06 06:54:00,
2013-11-05 22:59:00,50.2,9.5,29.53,ESE,108,3.1,3.1,19,0.00,,---,0.00,VWS V14.01,2013-11-06 06:59:00,
2013-11-05 23:04:00,50.0,9.4,29.53,ESE,108,0.0,0.0,19,0.00,,---,0.00,VWS V14.01,2013-11-06 07:04:00,
2013-11-05 23:09:00,49.1,4.9,29.53,ESE,108,0.0,0.0,16,0.00,,---,0.00,VWS V14.01,2013-11-06 07:09:00,
2013-11-05 23:14:00,48.4,4.3,29.53,ESE,108,0.0,0.0,16,0.00,,---,0.00,VWS V14.01,2013-11-06 07:14:00,
2013-11-05 23:20:00,47.7,3.7,29.53,ESE,108,0.0,0.0,16,0.00,,---,0.00,VWS V14.01,2013-11-06 07:20:00,
2013-11-05 23:25:00,47.1,4.6,29.53,ESE,108,0.0,0.0,17,0.00,,---,0.00,VWS V14.01,2013-11-06 07:25:00,
2013-11-05 23:30:00,46.4,4.0,29.53,ESE,108,0.0,0.0,17,0.00,,---,0.00,VWS V14.01,2013-11-06 07:30:00,
2013-11-05 23:35:00,46.6,4.1,29.53,ESE,108,0.0,2.7,17,0.00,,---,0.00,VWS V14.01,2013-11-06 07:35:00,
2013-11-05 23:40:00,47.5,3.5,29.53,ESE,108,0.0,0.0,16,0.00,,---,0.00,VWS V14.01,2013-11-06 07:40:00,
2013-11-05 23:45:00,48.6,4.4,29.53,ESE,108,0.0,0.0,16,0.00,,---,0.00,VWS V14.01,2013-11-06 07:45:00,
2013-11-05 23:50:00,48.2,4.1,29.53,ESE,108,0.0,0.0,16,0.00,,---,0.00,VWS V14.01,2013-11-06 07:50:00,
2013-11-05 23:55:00,47.5,4.8,29.53,ESE,108,0.0,2.7,17,0.00,,---,0.00,VWS V14.01,2013-11-06 07:55:00,